Location: Bergnershof
(48.9468°N, 10.9431°E)
Time: 00:24:52
(UTC+00:00)

Cosmos 1844 Rocket - Pass Details

Date: 21 June 2021
Orbit: 823 x 846 km, 71.0° (Epoch: 30 July)

Event Time Altitude Azimuth Distance (km) Brightness Sun altitude
Rises 20:52:14 0° 324° (NW) 3,414 8.2 -10.6°
Reaches altitude 10° 20:54:59 10° 313° (NW) 2,476 6.6 -10.9°
Maximum altitude 20:59:45 29° 256° (WSW) 1,524 4.2 -11.3°
Drops below altitude 10° 21:04:30 10° 199° (SSW) 2,462 4.7 -11.7°
Enters shadow 21:05:43 - 193° (SSW) 2,863 5.0 -11.8°
